Theta_e
312 311 311 310 309 308 309 309 310 310 310 310 310 311 311 311 311 312 312 312 312 311 315 315 314 315 315 315 319 319 320 319 319 321 319 321 322 322 321 321 322 337 344 346 346
315 315 314 312 311 310 309 309 309 310 310 310 311 311 311 311 311 311 312 312 313 311 314 314 314 313 314 316 320 321 320 319 319 320 321 322 321 322 322 323 323 324 333 341 344
315 315 316 316 315 312 311 309 309 309 310 310 311 311 311 311 311 317 315 315 315 310 312 311 313 313 314 315 318 320 320 320 320 320 320 322 321 321 322 324 323 322 323 330 338
314 314 315 316 316 316 314 311 310 309 309 310 310 310 310 311 313 319 316 314 313 312 310 315 313 313 314 316 316 320 320 321 321 320 320 320 319 319 320 322 322 321 320 326 324
313 314 314 314 315 316 316 315 311 310 309 309 310 310 311 310 311 315 317 315 312 313 313 315 314 312 315 314 314 317 316 316 318 316 316 316 318 319 319 320 320 320 321 329 336
312 312 314 314 314 315 317 316 316 311 310 309 309 311 312 313 312 311 313 314 314 314 315 315 313 313 314 315 316 316 316 317 316 317 316 318 319 317 320 320 320 320 325 337 341
310 311 312 313 313 314 315 317 316 312 310 310 309 310 312 312 312 312 314 314 315 315 315 313 312 314 315 316 315 315 318 318 317 317 319 316 319 319 319 318 319 320 320 327 345
309 309 310 311 312 314 315 316 316 312 310 310 309 310 313 313 312 312 318 316 315 315 313 313 313 315 316 315 317 319 316 318 317 316 316 317 319 321 317 317 320 319 320 321 321
308 308 309 310 311 314 316 315 313 314 313 313 311 313 314 314 313 311 315 317 315 315 314 315 313 316 316 319 319 317 317 317 317 315 317 318 319 320 318 317 319 320 320 319 320
308 307 309 312 313 314 314 314 314 315 316 316 314 315 315 315 320 318 313 318 315 317 317 315 315 317 317 319 317 317 317 316 316 317 317 317 318 319 318 317 319 319 317 318 319
308 307 312 314 315 313 312 314 312 313 312 313 314 314 314 314 314 314 317 314 317 317 318 315 317 317 318 319 319 318 319 319 317 316 316 318 318 320 319 318 319 317 318 321 320
307 309 313 315 315 313 312 312 310 310 312 313 313 312 313 313 314 316 318 316 316 319 315 316 317 318 317 316 317 317 316 317 317 315 317 318 319 319 319 317 319 321 322 323 323
307 312 312 314 313 313 312 311 311 311 312 312 312 313 313 313 314 314 314 317 318 318 317 318 317 316 316 315 316 316 317 318 318 316 316 317 319 320 317 320 322 322 322 324 324
308 313 312 312 312 312 312 311 312 312 314 314 314 314 313 315 315 315 314 317 316 319 317 317 317 316 317 317 317 318 317 318 318 318 320 317 320 321 320 319 323 323 323 325 326
308 313 312 312 312 313 313 312 312 313 316 314 314 314 314 314 313 315 315 316 318 316 316 318 317 316 317 318 317 318 318 318 318 320 319 318 320 321 319 320 324 324 324 326 327
308 313 313 314 314 314 315 312 312 314 314 314 312 312 313 313 314 314 314 316 314 316 316 317 315 315 317 314 316 316 318 318 316 319 321 320 320 320 326 325 325 326 327 327 328
307 312 313 314 314 315 315 313 314 313 312 311 311 312 312 312 314 314 312 312 315 319 319 316 313 313 312 315 315 319 320 321 320 320 320 318 319 327 325 323 323 325 325 325 326
306 311 313 314 313 315 314 313 313 312 310 310 310 312 312 312 314 314 314 313 311 314 316 318 316 312 311 312 314 315 321 321 321 320 320 320 323 328 322 322 322 323 323 324 324
306 308 313 313 311 313 313 315 311 310 309 309 311 312 311 312 313 314 313 312 311 311 314 316 312 311 311 310 311 313 316 312 319 319 321 322 327 325 323 322 320 319 321 321 321
306 309 314 311 312 311 314 311 310 309 309 309 310 310 312 311 313 314 315 312 311 310 311 311 313 311 311 309 311 311 311 317 317 319 320 322 326 328 322 320 318 316 316 315 317
306 308 312 307 312 311 312 311 311 309 309 310 310 310 310 310 310 313 314 313 312 311 313 316 316 314 316 313 313 315 314 312 316 318 318 319 321 325 320 318 318 317 316 315 316
307 309 309 309 311 307 312 309 309 310 308 309 309 309 309 310 311 310 312 310 308 309 311 314 316 316 315 309 309 310 312 314 316 316 318 318 318 313 312 312 312 312 312 312 313
309 309 309 310 311 310 309 309 309 310 309 308 309 309 309 310 310 309 310 308 308 309 310 310 310 311 311 308 308 310 310 310 310 311 315 317 318 310 311 312 312 312 312 312 312
309 311 309 308 306 308 309 310 310 308 307 306 308 307 308 309 309 309 310 309 309 310 309 308 310 311 312 311 308 309 309 308 309 310 311 310 311 310 311 312 312 312 311 311 310
308 308 307 310 309 307 306 307 308 309 306 306 307 308 308 309 309 310 309 310 309 309 308 309 310 308 307 307 309 309 309 308 309 309 309 308 308 308 311 311 309 310 309 310 310
308 308 306 306 305 307 305 306 306 306 306 307 308 306 308 309 309 308 308 309 310 309 309 308 311 309 309 309 309 309 309 308 308 308 308 307 308 310 310 309 309 309 309 308 309
306 306 306 304 305 307 307 306 306 305 305 305 305 306 306 306 306 306 306 306 306 307 309 310 311 310 310 308 308 307 307 308 307 308 308 308 309 310 310 310 309 309 308 308 308
Wind_Speed
21 21 21 20 19 18 17 15 13 11 9 8 9 9 10 11 13 15 15 7 9 13 14 15 17 15 13 10 7 6 4 7 7 7 3 1 4 7 10 11 13 5 7 9 9
22 22 21 21 20 19 17 16 14 12 11 9 9 10 11 13 16 17 11 7 10 19 19 17 18 16 8 8 6 6 5 8 3 4 2 7 4 9 8 14 5 8 10 8 7
23 23 22 21 20 19 18 17 15 13 12 11 11 11 12 14 15 1 5 5 11 17 18 14 14 13 6 7 8 6 6 6 5 9 6 8 7 3 8 8 5 14 13 9 9
25 25 25 23 22 20 18 17 16 14 13 12 13 13 12 10 3 5 3 4 13 16 19 17 16 9 7 8 9 5 7 7 4 7 4 6 3 6 10 16 19 20 16 13 15
27 26 26 26 25 22 20 18 18 16 13 12 12 13 12 6 9 9 7 9 14 16 18 17 14 8 8 7 9 8 4 7 11 9 11 8 12 7 11 16 16 19 12 9 12
29 27 27 28 27 24 21 19 19 17 14 12 12 12 11 6 7 8 12 10 13 16 17 15 9 11 6 6 9 7 6 5 4 7 6 7 7 5 6 11 10 12 10 9 10
31 29 28 27 28 26 22 20 19 17 13 12 12 12 14 17 7 8 10 13 13 12 11 12 8 10 8 7 4 2 4 5 7 5 5 8 7 6 3 7 11 10 11 10 13
33 32 31 28 27 25 21 18 17 14 12 11 11 11 9 9 8 13 12 15 13 11 8 7 12 5 1 6 3 2 2 5 3 2 1 6 9 5 2 9 9 10 10 11 12
35 33 32 30 27 23 19 14 11 10 8 8 8 6 8 4 5 10 14 17 15 12 9 10 9 3 4 4 3 0 5 5 3 1 3 1 3 7 8 6 8 7 6 7 11
37 36 33 28 24 20 12 8 7 6 3 3 5 4 5 0 4 3 14 16 13 12 8 6 4 4 3 7 6 5 5 3 5 3 4 5 11 9 9 8 9 7 5 6 6
37 36 31 26 21 10 9 4 6 3 9 9 13 18 20 21 20 16 8 21 11 9 8 6 6 10 13 10 6 4 5 8 5 5 3 4 8 9 10 11 7 3 6 6 5
37 33 27 24 13 11 11 8 10 9 10 15 11 16 17 18 9 6 8 13 12 12 7 5 12 13 8 8 6 5 4 7 7 4 7 3 9 9 7 5 8 8 9 11 9
35 26 25 19 14 10 8 14 14 10 5 8 6 9 6 4 7 8 15 11 12 12 12 13 3 7 10 8 8 7 8 6 7 1 5 5 4 2 6 11 9 11 11 12 15
35 20 19 17 8 13 10 17 14 5 3 10 6 6 8 5 3 7 15 10 4 18 9 8 6 7 8 10 10 9 13 10 8 3 3 2 3 4 2 5 11 15 16 18 18
33 16 16 17 13 17 19 14 10 1 2 12 8 9 7 5 9 8 4 7 11 8 7 6 7 9 8 11 13 8 6 9 7 6 3 6 4 4 4 5 12 16 16 17 18
30 13 13 15 16 18 20 9 1 2 1 5 6 12 8 14 8 4 3 3 4 5 2 1 3 2 3 2 9 1 5 3 2 4 8 9 7 5 2 5 9 11 13 16 19
29 8 12 14 22 18 19 4 1 1 5 6 7 9 6 9 11 9 6 8 2 8 8 1 4 4 5 3 3 4 6 4 7 7 10 4 6 3 2 3 5 8 12 16 18
30 13 9 16 19 16 15 2 1 3 3 3 7 5 5 11 9 9 2 4 8 2 3 3 5 8 9 4 2 3 3 5 5 5 2 2 4 4 4 3 4 7 10 13 17
32 15 6 15 19 11 4 3 2 2 4 7 6 3 4 5 5 7 6 1 4 6 4 1 3 2 8 11 3 3 2 2 3 1 3 3 3 4 4 3 4 5 7 13 16
31 11 8 19 13 7 4 3 1 2 4 3 4 4 6 7 6 8 3 1 2 2 2 2 2 4 5 3 8 6 2 2 1 5 9 5 4 3 7 5 5 7 10 13 14
23 7 11 21 7 8 3 2 2 2 7 4 2 3 2 3 4 7 3 4 7 2 6 3 1 5 4 2 3 3 1 2 1 2 4 6 3 2 2 4 7 7 10 12 12
15 4 15 16 7 4 2 4 3 3 6 2 1 1 2 3 3 3 3 4 11 3 2 2 3 3 5 4 5 6 7 7 5 5 2 2 3 4 5 6 8 11 16 17 14
17 6 11 11 4 3 4 3 2 3 3 3 2 3 2 1 3 2 2 6 9 2 3 5 2 2 2 4 3 4 4 3 3 0 14 10 4 4 4 5 9 11 13 15 15
8 4 6 11 7 2 3 2 4 3 2 2 2 1 2 1 1 3 3 2 6 4 5 2 2 4 5 4 1 3 4 2 2 4 5 6 4 5 2 4 5 8 10 11 14
5 2 3 4 4 4 1 2 3 3 3 5 2 5 3 3 4 3 2 4 1 6 2 1 4 1 1 1 2 4 7 7 8 7 7 7 9 9 2 2 4 4 7 10 11
2 2 2 2 3 3 2 1 2 4 3 2 1 3 1 3 4 7 2 1 2 4 3 3 2 2 2 2 4 9 10 9 9 11 11 12 14 1 2 3 6 10 14 16 13
1 1 1 1 1 2 1 2 1 5 1 1 1 2 5 5 3 6 8 9 7 4 2 1 4 2 4 2 6 10 15 15 8 6 7 8 5 1 1 8 12 16 18 18 15
Wind_Direction
11 8 5 2 359 357 353 348 347 343 335 325 323 318 312 306 300 293 282 255 199 185 166 166 167 177 180 177 169 158 206 222 219 196 224 266 3 327 310 294 316 330 290 282 305
5 3 1 359 356 353 349 344 338 334 330 325 319 317 316 315 309 294 259 224 200 193 178 173 165 164 163 167 173 194 223 220 216 205 235 312 326 319 314 306 285 308 324 278 254
1 357 354 352 350 348 345 340 333 323 320 321 314 312 317 322 324 132 127 192 185 184 191 189 175 166 155 164 182 185 239 195 213 221 253 287 292 271 294 295 262 315 318 297 269
359 356 352 346 342 340 338 334 327 319 313 311 315 315 312 314 308 174 163 156 164 173 181 176 169 165 165 183 191 209 225 209 252 233 229 268 274 275 264 267 293 300 294 263 262
353 352 351 346 340 333 331 327 325 316 306 299 305 310 310 288 255 215 192 172 173 175 184 185 180 171 193 186 169 226 232 209 241 249 254 268 258 260 260 287 306 309 285 269 254
353 347 346 345 341 332 324 321 319 311 298 288 286 293 289 265 250 223 207 190 191 182 186 194 206 195 161 180 198 205 209 253 251 252 221 222 250 183 266 296 314 322 315 274 264
354 351 346 342 339 332 324 316 315 310 294 280 276 278 275 266 252 216 196 192 189 196 201 201 201 176 156 157 196 156 263 268 218 226 229 202 239 228 273 322 317 323 320 288 273
353 349 346 341 339 332 326 315 314 308 294 276 266 269 256 261 243 213 191 184 186 190 179 181 163 165 224 130 77 202 232 251 126 171 299 205 241 253 137 336 317 303 285 287 273
352 347 345 340 336 333 328 319 319 322 304 274 259 249 270 275 247 218 205 192 185 188 156 143 168 166 152 179 194 52 242 223 275 342 132 240 255 265 317 321 300 294 298 302 309
351 347 346 341 336 334 340 331 343 334 325 321 277 276 249 250 126 78 208 200 190 182 148 175 158 182 157 196 226 194 213 217 233 134 294 284 265 267 290 304 292 323 331 327 333
351 348 349 344 341 3 18 5 4 342 313 269 279 266 278 280 273 274 246 194 169 167 184 185 206 213 208 208 231 200 242 263 255 247 269 263 265 287 289 287 306 344 1 340 320
351 352 355 351 3 35 54 65 32 312 303 316 304 281 285 254 276 217 197 169 188 197 141 176 229 228 208 179 186 196 219 260 299 216 213 267 283 294 297 61 63 29 2 346 336
354 357 5 6 40 8 51 15 347 330 285 308 335 2 350 334 221 252 205 187 190 189 195 213 195 186 181 171 188 212 225 236 258 128 237 257 229 318 99 98 62 34 5 350 344
357 360 13 20 25 21 2 340 331 326 318 348 4 11 339 342 235 344 206 180 172 205 194 229 224 174 183 206 203 231 216 236 248 234 250 256 230 282 112 120 40 16 6 353 347
359 357 1 13 9 2 347 327 329 146 345 343 353 360 12 354 313 23 179 211 196 162 179 198 195 191 207 228 194 227 194 209 211 221 219 192 242 184 358 127 12 6 6 2 1
360 351 353 354 360 351 348 341 13 243 337 354 349 351 5 17 19 353 61 79 83 149 166 164 55 45 331 68 194 111 164 121 133 186 242 234 237 182 354 343 359 21 25 23 22
359 326 357 351 349 349 346 351 230 213 347 8 336 338 344 4 19 24 41 49 24 211 223 176 44 353 14 196 92 201 192 220 218 211 250 132 217 27 27 36 21 12 21 24 29
357 341 314 341 338 332 340 17 216 8 6 359 335 328 45 4 25 14 77 78 43 41 90 208 164 13 358 25 12 75 259 241 254 231 185 171 206 113 113 111 38 39 30 23 23
354 353 339 344 345 340 344 59 56 8 330 333 325 22 19 12 1 13 28 52 35 19 84 135 106 319 48 44 344 92 101 355 106 40 247 150 112 179 185 123 83 46 23 16 9
352 359 13 349 348 359 73 92 67 348 330 335 349 13 344 352 354 8 330 32 60 18 90 129 148 22 7 329 43 67 45 205 104 225 242 191 195 151 166 103 59 45 18 4 360
354 1 351 351 358 52 68 48 321 1 15 355 347 302 358 350 317 328 328 48 11 349 42 113 299 175 298 36 336 335 248 75 332 245 264 251 155 80 94 354 334 349 342 338 339
357 334 344 1 49 35 55 326 324 337 7 357 41 33 50 5 305 287 311 336 334 281 91 59 132 210 260 332 278 246 258 232 230 191 213 309 202 72 43 28 5 10 7 353 328
342 313 357 15 62 29 329 319 297 355 2 360 32 25 17 353 305 351 348 342 359 25 161 173 167 187 204 210 186 216 164 139 119 140 253 254 221 144 63 42 21 15 9 10 11
348 337 6 50 73 40 8 357 332 349 85 17 30 41 10 355 26 303 318 355 1 53 74 128 152 229 266 337 44 205 180 141 202 229 256 243 280 215 335 18 14 20 21 16 15
9 35 2 346 22 359 305 334 328 331 33 25 103 40 359 296 309 284 306 293 37 359 26 357 245 252 264 188 236 246 240 238 233 248 253 276 266 288 260 343 4 358 348 340 346
12 350 334 305 308 308 353 85 336 333 313 359 60 11 349 261 278 290 305 294 330 353 28 7 185 206 241 310 282 270 251 242 243 254 262 262 271 194 130 328 329 338 339 336 328
346 292 303 323 335 276 95 342 317 341 258 72 24 299 282 289 273 283 274 275 275 307 338 304 164 176 263 5 302 275 250 229 224 211 244 243 292 144 326 341 331 324 322 316 314